DW7816 Weather Reports


time (UTC)temp
C
wind
direction
speed
KPH
gust
KPH
rain 1hr
cm
rain 24hr
cm
rain mn
cm
humidity
%
barometer
mb
20260906172154 36 250 1.6 8.0 0.00 0.00 0.00 51 1013.0
20260906171157 36 0 1.6 6.4 0.00 0.00 0.00 52 1013.1
20260906170124 36 192 0.0 6.4 0.00 0.00 0.00 53 1013.3
20260906165114 35 201 0.0 8.0 0.00 0.00 0.00 53 1013.4
20260906164136 35 182 3.2 9.7 0.00 0.00 0.00 55 1013.6
20260906163140 34 184 3.2 11.3 0.00 0.00 0.00 58 1013.6
20260906162129 34 126 3.2 11.3 0.00 0.00 0.00 57 1013.7
20260906161113 34 103 1.6 11.3 0.00 0.00 0.00 55 1013.6
20260906154914 33 112 0.0 4.8 0.00 0.00 0.00 57 1013.6
20260906153927 33 198 0.0 4.8 0.00 0.00 0.00 60 1013.6
20260906152933 33 125 0.0 4.8 0.00 0.00 0.00 58 1013.6
20260906151928 33 149 0.0 0.0 0.00 0.00 0.00 57 1013.6
20260906150932 32 149 0.0 0.0 0.00 0.00 0.00 63 1013.6
20260906145931 32 149 0.0 0.0 0.00 0.00 0.00 61 1013.6
20260906144933 31 149 0.0 0.0 0.00 0.00 0.00 62 1013.5
20260906143916 31 149 0.0 0.0 0.00 0.00 0.00 64 1013.5
20260906142911 30 149 0.0 0.0 0.00 0.00 0.00 65 1013.6
20260906141846 30 149 0.0 0.0 0.00 0.00 0.00 72 1013.7
20260906140822 30 149 0.0 0.0 0.00 0.00 0.00 69 1013.7
20260906135757 29 149 0.0 0.0 0.00 0.00 0.00 72 1013.5
20260906134734 28 149 0.0 0.0 0.00 0.00 0.00 77 1013.5
20260906133708 27 149 0.0 0.0 0.00 0.00 0.00 83 1013.6
20260906132655 26 149 0.0 0.0 0.00 0.00 0.00 86 1013.6
20260906131712 25 149 0.0 0.0 0.00 0.00 0.00 91 1013.5
20260906130659 23 149 0.0 0.0 0.00 0.00 0.00 94 1013.5
20260906125642 22 149 0.0 0.0 0.00 0.00 0.00 98 1013.3
20260906123517 20 149 0.0 0.0 0.00 0.00 0.00 98 1013.0
20260906121437 20 149 0.0 0.0 0.00 0.00 0.00 97 1012.8
20260906120437 20 149 0.0 0.0 0.00 0.00 0.00 97 1012.8
20260906114328 20 149 0.0 0.0 0.00 0.00 0.00 96 1012.5
20260906113317 20 149 0.0 0.0 0.00 0.00 0.00 96 1012.4
20260906112341 20 149 0.0 0.0 0.00 0.00 0.00 96 1012.4
20260906111334 20 149 0.0 0.0 0.00 0.00 0.00 96 1012.3
20260906110342 20 149 0.0 0.0 0.00 0.00 0.00 96 1012.3
20260906104202 20 149 0.0 0.0 0.00 0.00 0.00 95 1012.2
20260906103213 20 149 0.0 0.0 0.00 0.00 0.00 95 1012.2
20260906102139 20 149 0.0 0.0 0.00 0.00 0.00 95 1012.2
20260906101202 21 149 0.0 0.0 0.00 0.00 0.00 94 1012.2
20260906095036 21 149 0.0 0.0 0.00 0.00 0.00 94 1012.2
20260906094019 21 149 0.0 0.0 0.00 0.00 0.00 94 1012.1
20260906093033 21 149 0.0 0.0 0.00 0.00 0.00 93 1012.0
20260906092017 21 149 0.0 0.0 0.00 0.00 0.00 92 1012.0
20260906091014 21 149 0.0 0.0 0.00 0.00 0.00 92 1012.0
20260906090039 21 149 0.0 0.0 0.00 0.00 0.00 92 1011.9
20260906085059 21 149 0.0 0.0 0.00 0.00 0.00 91 1011.9
20260906082943 22 149 0.0 0.0 0.00 0.00 0.00 90 1011.8
20260906081957 22 149 0.0 0.0 0.00 0.00 0.00 90 1011.8
20260906075910 22 149 0.0 0.0 0.00 0.00 0.00 88 1011.8
20260906074913 22 149 0.0 0.0 0.00 0.00 0.00 88 1011.7
20260906073912 22 149 0.0 0.0 0.00 0.00 0.00 87 1011.7
20260906070543 23 149 0.0 0.0 0.00 0.00 0.00 85 1012.0
20260906064422 23 126 0.0 0.0 0.00 0.00 0.00 85 1012.0
20260906062235 23 126 0.0 0.0 0.00 0.00 0.00 83 1012.2
20260906061213 23 126 0.0 1.6 0.00 0.00 0.00 82 1012.1
20260906055044 23 126 0.0 0.0 0.00 0.00 0.00 84 1012.0
20260906054020 23 126 0.0 0.0 0.00 0.00 0.00 86 1012.1
20260906052953 23 126 0.0 0.0 0.00 0.00 0.00 83 1012.0
20260906051938 24 126 0.0 0.0 0.00 0.00 0.00 84 1012.0
20260906050957 24 126 0.0 0.0 0.00 0.00 0.00 83 1011.9
20260906045925 24 126 0.0 0.0 0.00 0.00 0.00 82 1011.9
20260906044919 24 126 0.0 0.0 0.00 0.00 0.00 81 1011.7
20260906043900 24 140 0.0 0.0 0.00 0.00 0.00 82 1011.9
20260906042901 24 140 0.0 0.0 0.00 0.00 0.00 82 1012.0
20260906041915 24 140 0.0 0.0 0.00 0.00 0.00 82 1012.0
20260906040936 25 140 0.0 0.0 0.00 0.00 0.00 82 1012.0
20260906035947 25 140 0.0 0.0 0.00 0.00 0.00 82 1012.0
20260906034938 25 140 0.0 0.0 0.00 0.00 0.00 81 1012.0
20260906032736 25 140 0.0 0.0 0.00 0.00 0.00 80 1011.8
20260906031746 26 140 0.0 0.0 0.00 0.00 0.00 77 1011.8
20260906030755 26 140 0.0 0.0 0.00 0.00 0.00 75 1011.8
20260906025746 26 140 0.0 0.0 0.00 0.00 0.00 76 1011.7
20260906024754 27 140 0.0 0.0 0.00 0.00 0.00 74 1011.6
20260906023734 27 140 0.0 0.0 0.00 0.00 0.00 73 1011.6
20260906022759 27 140 0.0 0.0 0.00 0.00 0.00 71 1011.5
20260906021825 27 164 0.0 0.0 0.00 0.00 0.00 71 1011.5
20260906020838 27 169 0.0 4.8 0.00 0.00 0.00 69 1011.2
20260906015824 28 175 0.0 0.0 0.00 0.00 0.00 69 1011.0
20260906014756 28 175 0.0 0.0 0.00 0.00 0.00 68 1010.8
20260906012543 28 127 0.0 4.8 0.00 0.00 0.00 67 1010.7
20260906011546 29 49 0.0 0.0 0.00 0.00 0.00 66 1010.6
20260906005414 30 171 0.0 0.0 0.00 0.00 0.00 64 1010.4
20260906003252 31 46 0.0 0.0 0.00 0.00 0.00 66 1010.4
20260906002305 31 46 0.0 0.0 0.00 0.00 0.00 62 1010.4
20260906001301 32 28 0.0 4.8 0.00 0.00 0.00 59 1010.4
20260906000248 33 19 0.0 0.0 0.00 0.00 0.00 62 1010.3
20260905235218 34 19 0.0 0.0 0.00 0.00 0.00 58 1010.3
20260905234215 35 19 0.0 0.0 0.00 0.00 0.00 52 1010.2
20260905233239 36 19 0.0 0.0 0.00 0.00 0.00 54 1010.2
20260905232252 36 19 0.0 0.0 0.00 0.00 0.00 51 1010.2
20260905231314 37 19 0.0 0.0 0.00 0.00 0.00 49 1010.2
20260905225222 37 19 0.0 0.0 0.00 0.00 0.00 48 1010.2
20260905224243 37 19 0.0 0.0 0.00 0.00 0.00 46 1010.1
20260905223253 37 19 0.0 3.2 0.00 0.00 0.00 46 1010.1
20260905222237 37 34 0.0 3.2 0.00 0.00 0.00 45 1010.1
20260905221255 37 5 0.0 0.0 0.00 0.00 0.00 42 1010.2
20260905220249 37 28 0.0 1.6 0.00 0.00 0.00 46 1010.3
20260905215311 37 63 0.0 3.2 0.00 0.00 0.00 44 1010.3
20260905214333 37 333 0.0 4.8 0.00 0.00 0.00 45 1010.4
20260905213305 37 47 0.0 0.0 0.00 0.00 0.00 44 1010.4
20260905211142 37 84 0.0 0.0 0.00 0.00 0.00 47 1010.8
20260905210113 37 30 1.6 9.7 0.00 0.00 0.00 47 1010.9
20260905205108 37 114 1.6 9.7 0.00 0.00 0.00 46 1011.0
20260905204039 37 29 0.0 6.4 0.00 0.00 0.00 46 1011.2
20260905203011 37 113 1.6 6.4 0.00 0.00 0.00 45 1011.3
20260905201956 37 121 1.6 6.4 0.00 0.00 0.00 46 1011.5
20260905201015 37 248 1.6 4.8 0.00 0.00 0.00 46 1011.6
20260905200009 36 175 3.2 11.3 0.00 0.00 0.00 47 1011.8
20260905195012 36 104 1.6 11.3 0.00 0.00 0.00 47 1011.8
20260905194023 36 98 3.2 11.3 0.00 0.00 0.00 46 1012.0
20260905193000 36 348 1.6 11.3 0.00 0.00 0.00 47 1012.0
20260905192015 36 49 1.6 11.3 0.00 0.00 0.00 47 1012.2
20260905185849 36 101 3.2 11.3 0.00 0.00 0.00 55 1012.5
20260905184823 36 20 1.6 9.7 0.00 0.00 0.00 49 1012.7
20260905183752 36 291 1.6 8.0 0.00 0.00 0.00 49 1012.9
20260905182742 35 153 1.6 0.0 0.00 0.00 0.00 55 1012.9
20260905180604 36 163 1.6 12.9 0.00 0.00 0.00 50 1013.3
20260905175556 35 338 1.6 9.7 0.00 0.00 0.00 50 1013.3
20260905174616 35 32 1.6 9.7 0.00 0.00 0.00 53 1013.4